Flag for Germany Weather past 2 weeks in Greifswald, Mecklenburg-Western Pomerania, Germany

Now
54 °F

Scattered clouds.


Feels Like: 52 °F
Forecast: 47 / 61 °F
Wind: 6 mph from North

Location: Greifswald

Current Time: Sep 23, 2014 at 1:21:16 PM

Latest Report: Sep 23, 2014 at 1:00 PM


Visibility: 19 mi

Pressure: 30.11 "Hg

Humidity: 57%

Dew point: 39 °F

Location of GreifswaldLocation

Historic Weather in Greifswald — Graph

°F

Greifswald temperature yesterday

Maximum temperature yesterday: 56 °F (at 1:00 PM)
Minimum temperature yesterday: 49 °F (at 10:00 AM)
Average temperature yesterday: 53 °F

Past Weeks' High & Low Weather Summary

 TemperatureHumidityPressure
High71 °F (Sep 8, 3:00 PM)100% (Sep 11, 7:00 AM)30.22 "Hg (Sep 11, 7:00 AM)
Low47 °F (Sep 23, 6:00 AM)53% (Sep 8, 3:00 PM)29.72 "Hg (Sep 22, 7:00 AM)
Average60 °F85%30.04 "Hg
* Reported Sep 8 12:00 Noon — Sep 23 12:00 Noon, Greifswald, Weather by CustomWeather, © 2014

Note: Actual official high and low records may vary slightly from our data, if they occured in-between our weather recording intervals... More about our weather records

Advertising

Greifswald weather history for previous 24 hours

 ConditionsComfort  
Time TempWeatherWind HumidityBarometerVisibility
12:00 PM
Sep 23
53 °FScattered clouds.5 mph53%30.09 "Hg19 mi
11:00 AM52 °FPassing clouds.7 mph53%30.09 "Hg14 mi
10:00 AM51 °FPassing clouds.7 mph55%30.07 "Hg16 mi
9:00 AM49 °FPassing clouds.6 mph59%30.06 "Hg19 mi
8:00 AM47 °FPassing clouds.6 mph65%30.04 "Hg28 mi
7:00 AM47 °FPassing clouds.6 mph67%30.03 "Hg28 mi
6:00 AM47 °FPassing clouds.5 mph72%30.01 "Hg25 mi
4:00 AM49 °FPassing clouds.6 mph73%29.99 "Hg25 mi
3:00 AM50 °FPassing clouds.6 mph72%29.98 "Hg25 mi
2:00 AM51 °FOvercast.5 mph73%29.97 "Hg25 mi
1:00 AM51 °FOvercast.7 mph75%29.96 "Hg22 mi
12:00 AM51 °FOvercast.8 mph77%29.94 "Hg31 mi
10:00 PM
Sep 22
52 °FOvercast.8 mph77%29.91 "Hg43 mi
9:00 PM52 °FOvercast.8 mph83%29.89 "Hg43 mi
8:00 PM53 °FOvercast.7 mph82%29.86 "Hg43 mi
7:00 PM53 °FOvercast.8 mph80%29.83 "Hg19 mi
6:00 PM53 °FOvercast.7 mph84%29.81 "Hg43 mi
5:00 PM52 °FRain showers. Overcast.5 mph89%29.80 "Hg4 mi
4:00 PM53 °FSprinkles. Overcast.5 mph85%29.78 "Hg9 mi
3:00 PM53 °FOvercast.8 mph81%29.78 "Hg34 mi
2:00 PM55 °FOvercast.6 mph73%29.76 "Hg37 mi
1:00 PM56 °FPartly sunny.6 mph67%29.75 "Hg43 mi
Weather by CustomWeather, © 2014

See weather overviewHow to use our weather pages